www.pogodaiklimat.ru

Погода и климат >> Архив погоды >> Ирак >> Najaf


ПОГОДА в Najaf

  • Прогноз погоды в Najaf
  • Монитор погоды в Najaf
  • Климат города

АРХИВ ПОГОДЫ в Najaf

Время (UTC), дата Ветер
(напр.,м/с)
 
Видим.   Явления Облачность Т
(С)
Тd
(С)
f
(%)
Тe
(С)
Тes
(С)
Комфортность P
(гПа)
Po
(гПа)
Тmin
(С)
Tmax
(С)
R
(мм)
R24
(мм)
S
(см)
09 13.06 СЗ 3 10 км ясно +41.5 +10.6 16 +40 +58 опасность
солнечного
удара
999.1 999.0
12 13.06 Ю 2 10 км 3/3 840 м
[Cu med, cong]
+43.0 +11.3 15 +42 +51 опасность
перегрева
997.5 998.0
15 13.06 Ю 2 10 км 3/3 840 м
[Cu med, cong]
+41.7 +10.5 16 +40 +41 очень
жарко
995.9 996.0
18 13.06 Ю 2 10 км ясно +37.8 +11.0 20 +37 +37 очень
жарко
996.2 996.0 +43.1
21 13.06 штиль 0 10 км ясно +35.3 +10.1 22 +34 +34 очень
жарко
996.4 996.0
00 14.06 штиль 0 4000 м пыль ясно +31.5 +12.0 30 +32 +32 жарко 995.5 996.0
06 14.06 С 5 8000 м пыль ясно +34.3 +12.8 27 +35 +41 очень
жарко
999.6 1000.0 +28.1
09 14.06 С 5 8000 м пыль ясно +39.5 +11.4 19 +39 +50 очень
жарко
1000.3 1000.0
12 14.06 С 5 6000 м пыль ясно +42.0 +8.6 14 +40 +47 очень
жарко
1000.5 1001.0
15 14.06 С 5 8000 м пыль ясно +40.0 +12.3 19 +39 +40 очень
жарко
1000.3 1000.0
18 14.06 штиль 0 10 км ясно +36.3 +14.7 28 +38 +38 очень
душно
1001.3 1001.0 +42.5
21 14.06 штиль 0 10 км ясно +33.0 +17.5 40 +37 +37 очень
душно
1002.0 1002.0
00 15.06 штиль 0 10 км ясно +30.5 +10.4 29 +30 +30 жарко 1002.1 1002.0
03 15.06 штиль 0 10 км ясно +30.5 +11.7 31 +31 +32 жарко 1004.3 1004.0
06 15.06 штиль 0 10 км ясно +34.5 +11.9 25 +34 +51 опасность
солнечного
удара
1005.1 1005.0 +30.0
09 15.06 штиль 0 10 км ясно +39.6 +12.4 20 +39 +68 опасность
солнечного
удара
1004.5 1005.0
12 15.06 СЗ 3 10 км 3/3 840 м
[Cu hum]
+41.2 +12.0 18 +41 +48 опасность
перегрева
1003.5 1004.0
15 15.06 штиль 0 10 км 1/1 840 м
[Cu hum Ci sp]
+40.5 +11.3 18 +40 +41 очень
жарко
1002.5 1003.0
21 15.06 штиль 0 10 км ясно +33.6 +12.1 27 +34 +34 очень
жарко
1003.2 1003.0
03 16.06 штиль 0 10 км ясно +28.8 +11.7 35 +30 +31 жарко 1003.6 1004.0
06 16.06 штиль 0 10 км ясно +36.0 +12.8 25 +36 +53 опасность
солнечного
удара
1004.8 1005.0 +28.0
09 16.06 штиль 0 10 км 1/1 840 м
[Cu hum]
+39.6 +11.5 19 +39 +65 опасность
солнечного
удара
1004.8 1005.0
12 16.06 С 2 10 км ясно +42.2 +7.0 12 +40 +53 опасность
солнечного
удара
1003.7 1004.0
15 16.06 штиль 0 10 км ясно +40.2 +9.2 16 +39 +40 очень
жарко
1003.4 1003.0
18 16.06 штиль 0 10 км ясно +36.6 +9.9 20 +35 +35 очень
жарко
1004.2 1004.0 +42.4
21 16.06 штиль 0 10 км ясно +33.5 +9.0 22 +32 +32 жарко 1005.2 1005.0
03 17.06 С 2 10 км ясно +30.0 +10.4 30 +30 +31 жарко 1005.0 1005.0
06 17.06 С 4 10 км ясно +38.0 +11.4 20 +37 +46 очень
жарко
1006.0 1006.0 +29.5
09 17.06 С 3 10 км ясно +41.7 +8.3 14 +40 +58 опасность
солнечного
удара
1006.0 1006.0
12 17.06 С 4 10 км ясно +43.3 +7.5 12 +41 +50 опасность
перегрева
1003.8 1004.0
15 17.06 Ю 2 10 км ясно +42.8 +8.4 13 +41 +42 опасность
перегрева
1003.6 1004.0
18 17.06 штиль 0 10 км ясно +38.0 +12.9 22 +38 +38 очень
жарко
1002.5 1003.0 +44.0
21 17.06 штиль 0 10 км ясно +33.9 +14.0 30 +35 +35 очень
жарко
1003.1 1003.0
00 18.06 штиль 0 10 км ясно +31.8 +14.1 34 +33 +33 жарко 1003.1 1003.0
03 18.06 штиль 0 10 км ясно +31.5 +9.2 25 +31 +32 жарко 1001.5 1002.0
06 18.06 СЗ 3 10 км ясно +34.4 +11.4 25 +34 +45 очень
жарко
1003.3 1003.0 +29.6
09 18.06 СЗ 4 6000 м пыль ясно +40.0 +9.7 16 +38 +53 опасность
солнечного
удара
1003.5 1004.0
12 18.06 З 5 6000 м пыль ясно +42.0 +11.9 17 +41 +48 опасность
перегрева
1003.4 1003.0
15 18.06 З 2 10 км ясно +40.0 +10.0 17 +39 +40 очень
жарко
1001.5 1002.0
18 18.06 З 2 10 км ясно +36.5 +8.5 18 +35 +35 очень
жарко
1003.4 1003.0 +42.4
21 18.06 штиль 0 10 км ясно +32.5 +9.8 25 +32 +32 жарко 1003.8 1004.0
00 19.06 СВ 2 10 км ясно +31.0 +9.9 27 +31 +31 жарко 1003.1 1003.0
03 19.06 СЗ 2 10 км ясно +30.0 +9.6 28 +30 +31 жарко 1004.1 1004.0
06 19.06 З 2 10 км ясно +35.0 +14.0 28 +36 +48 очень
жарко
1005.3 1005.0 +29.5
09 19.06 штиль 0 10 км ясно +39.4 +12.3 20 +39 +68 опасность
солнечного
удара
1005.9 1006.0
12 19.06 штиль 0 10 км ясно +42.2 +11.7 17 +42 +59 опасность
перегрева
1004.7 1005.0
15 19.06 штиль 0 10 км ясно +41.6 +11.4 17 +41 +42 опасность
перегрева
1004.3 1004.0
18 19.06 штиль 0 10 км ясно +37.5 +9.9 19 +36 +36 очень
жарко
1004.8 1005.0 +42.6
21 19.06 штиль 0 10 км ясно +34.0 +13.5 29 +35 +35 очень
жарко
1004.8 1005.0
06 20.06 штиль 0 10 км ясно +35.8 +12.3 24 +36 +53 опасность
солнечного
удара
1006.9 1007.0 +28.6

 

Местоположение метеостанции Najaf (Ирак): широта 31.98 долгота 44.32 высота над уровнем моря 32 м.

В архиве по умолчанию представлена погода в Najaf за последнюю неделю. Архивные данные за месяц целиком и за предыдущие месяцы, начиная с января 2011 года, Вы можете получить, выбрав интересующий диапазон дат из раскрывающегося списка и нажав кнопку "Ввод!".


*Определитесь, кто Вы:
робот инопланетянин человек

Внимание! Время в таблицах - всемирное. Для получения местного времени необходимо прибавить поправку, которая в Najaf равна 3 ч.

Смотрите также архив погоды в соседних городах и на ближайших метеорологических станциях:

Погода в Hella (Ирак) (54 км)
Погода в Diwaniya (Ирак) (62 км)
Погода в Karbalaa (Ирак) (77 км)
Погода в Samawah (Ирак) (118 км)
Погода в Azizyah (Ирак) (126 км)
Погода в Baghdad (Ирак) (139 км)
Погода в Ubaydah Bin Al Jarrah (Ирак) (146 км)
Погода в Kut-Al-Hai (Ирак) (164 км)
Погода в Rifai (Ирак) (171 км)
Погода в Ayn Al-Tamar (Ирак) (179 км)

Пояснения к столбцам:

Ветер - указаны скорость ветра в м/с - средняя за 10 мин, порывы в срок и между сроками (в фигурных скобках) и направление, откуда дует ветер: С - северный, СВ - северо-восточный, В - восточный, ЮВ - юго-восточный, Ю - южный, ЮЗ - юго-западный, З - западный, СЗ - северо-западный.
Видимость - горизонтальная дальность видимости в метрах или километрах. При видимости от 1 до 10 км при отсутствии осадков обычно наблюдается дымка, при ухудшении видимости до 1 км и менее - туман. В сухую погоду видимость может ухудшаться дымом, пылью или мглою.
Явления - указаны атмосферные явления, наблюдавшиеся в срок или в последний час перед сроком; фигурными скобками обозначены явления, наблюдавшиеся между сроками (за 1-3 часа до срока); квадратными скобками обозначены град или гололедные отложения с указанием их диаметра в мм.
Облачность - указаны через наклонную черту общая и нижняя облачность в баллах и высота нижней границы облаков в метрах; квадратными скобками обозначены формы облаков: Ci - перистые, Cs - перисто-слоистые, Cc - перисто-кучевые, Ac - высококучевые, As - высокослоистые, Sc - слоисто-кучевые, Ns - слоисто-дождевые, Cu - кучевые, Cb - кучево-дождевые. Подробнее классификацию облаков см. в Атласе облаков (PDF).
T - Температура воздуха - температура, измеренная на высоте 2 м над землей.
Td - Температура точки росы - температура, при понижении до которой содержащийся в воздухе водяной пар достигнет насыщения.
f - Относительная влажность воздуха - влажноcть воздуха, измеренная на высоте 2 м над землей.
Te - Эффективная температура - температура, которую ощущает одетый по сезону человек в тени. Характеристика душности погоды. При расчете учитывается влияние влажности воздуха и скорости ветра на теплоощущения человека.
Tes - Эффективная температура на солнце - температура, которую ощущает человек, с поправкой на солнечный нагрев. Характеристика знойности погоды. Зависит от высоты солнца над горизонтом, облачности и скорости ветра. Ночью, в пасмурную погоду, а также при ветре 12 м/с и более поправка равна нулю.
P - Атмосферное давление - приведенное к уровню моря атмосферное давление.
Po - Атмосферное давление - измеренное на уровне метеостанции атмосферное давление.
Tmin - Минимальная температура - минимум температуры воздуха на высоте 2 м над землей.
Tmax - Максимальная температура - максимум температуры воздуха на высоте 2 м над землей.
R - Количество осадков - Количество выпавших осадков за период времени, мм. При наведении курсора мыши на число - период времени, за который выпало указанное количество осадков.
R24 - Количество осадков - Количество выпавших осадков за 24 часа, мм.
S - Снежный покров - Высота снежного покрова, см. При наведении курсора мыши на число - состояние снежного покрова и степень покрытия местности в баллах.